Address 0xb97331e86ea4ce364491650e127e096c720dc422 16

 
Txn Hash Method
Block
From
To
Value [Txn Fee]
0x4498f5cd87fffffcfdd7e5334c77ce1e956bf04fda333768bedcd11fef488fcaMigrate1969838752024-04-03 0:37:1711 days 29 mins ago0xb97331e86ea4ce364491650e127e096c720dc422OUT 0x65b1ca92a017ecfa4060231dfc28f69264daa3b00 ETH0.00000822 0.024476
0x239fddc95b99b29c65c5ae69c23ff276dc652582d3b58a1541d67340ca2b93daApprove1969838312024-04-03 0:37:0611 days 29 mins ago0xb97331e86ea4ce364491650e127e096c720dc422OUT Dopex: rDPX Token0 ETH0.0000057 0.023336
0x4f2111ae013f85e192eb93276081cfad409e94f311a86ef6814127d81ad0938bWithdraw Locked1969710672024-04-02 23:43:1011 days 1 hr ago0xb97331e86ea4ce364491650e127e096c720dc422OUT 0xd840f78b26147f583c853c93dc8e0e5521c3af350 ETH0.00000784 0.01
0x54ba49cfc950581e2f3175b6d54b418beba35a13514564af291b2e4c12b47a72Get Reward1969708892024-04-02 23:42:2611 days 1 hr ago0xb97331e86ea4ce364491650e127e096c720dc422OUT 0xd840f78b26147f583c853c93dc8e0e5521c3af350 ETH0.00000625 0.01
0xf279029c6f46d37145dcb4579e8785969d831d73cc736f3a03d5c4b03388f14fApprove1915498452024-03-18 5:41:3926 days 19 hrs ago0xb97331e86ea4ce364491650e127e096c720dc422OUT Arbitrum Foundation: ARB Token0 ETH0.000010880.1
0xd8f3d6d9ef3d343535af8982c1a59236e8d7d4593b76f97cd5e33daa82eee283Swap And Send1910359662024-03-16 17:15:3828 days 7 hrs ago0xb97331e86ea4ce364491650e127e096c720dc422OUT Hop Protocol: ETH Wrapper0.55 ETH0.00003491 0.1
0x60dc55c323f5fd405091d021c6dbe7b44c740f6d05bd01307b409a2f63a497bbExecute1887755842024-03-09 21:45:2035 days 3 hrs ago0xb97331e86ea4ce364491650e127e096c720dc422OUT Uniswap: Universal Router 40 ETH0.00033148 0.1
0x3c9f2208275f5f7758db5b793eb27c17d7e81944ac2451db4496980d49894d07Execute1887754622024-03-09 21:44:4235 days 3 hrs ago0xb97331e86ea4ce364491650e127e096c720dc422OUT Uniswap: Universal Router 40 ETH0.00038974 0.1
0x4ad843f95085e9213ef307ea2a7a26476e4329449501319a18fe28950d4b393cApprove1887754372024-03-09 21:44:3435 days 3 hrs ago0xb97331e86ea4ce364491650e127e096c720dc422OUT Circle: USDC Token0 ETH0.00012981 0.1
0xd92c641ecce31dbdd76baa0700fe7b49f48ed4a489bede75aa55bd001558491bMulticall1887557062024-03-09 20:06:3035 days 5 hrs ago0xb97331e86ea4ce364491650e127e096c720dc422OUT 0xe4ba6740af4c666325d49b3112e4758371386adc0 ETH0.00029808 0.1
0x343230d37ed720e8e1569dfc50ea07edd85166d51a6b8b66486433082b010eb0Multicall1884133062024-03-08 18:34:3736 days 6 hrs ago0xb97331e86ea4ce364491650e127e096c720dc422OUT 0xe4ba6740af4c666325d49b3112e4758371386adc0 ETH0.00033634 0.1
0x84fcbd03c80f1bb52062120cc3a65c95253cd48943ef01347480859516f356a9Multicall1884118222024-03-08 18:27:4936 days 6 hrs ago0xb97331e86ea4ce364491650e127e096c720dc422OUT 0xe4ba6740af4c666325d49b3112e4758371386adc0 ETH0.00033069 0.1
0x7a62199da9fabb523c00db63c3014298297454253e0645532a9d88225efada91Multicall1884099582024-03-08 18:19:1736 days 6 hrs ago0xb97331e86ea4ce364491650e127e096c720dc422OUT 0xe4ba6740af4c666325d49b3112e4758371386adc0 ETH0.00039354 0.1
0x90991897b9bee8d64b11fe953857f97c06dab6289e8a8d9c0624519077ded12cExecute1884097422024-03-08 18:18:1936 days 6 hrs ago0xb97331e86ea4ce364491650e127e096c720dc422OUT Uniswap: Universal Router 40 ETH0.00053488 0.1
0xac064838807817195deb96eebe0082834fce849157916e3ead6cd56717012b08Transfer1884068902024-03-08 18:05:4436 days 7 hrs ago0xb614f0e24be21044fb0ee630e3dfbae20b0b0c95 IN 0xb97331e86ea4ce364491650e127e096c720dc4220.0025 ETH0.000073540.1
0x6f15f43df9162188aace52bade5d56b1f3d7a11f634bf402289a2a31bc3cb8daApprove1881261972024-03-07 21:44:4537 days 3 hrs ago0xb97331e86ea4ce364491650e127e096c720dc422OUT Dopex: DPX Token0 ETH0.00018291 0.1
0x04900f4da41944ddac7fc8075c826aa51fae5af06c1698e0d9638a13f551fc45Settle1881257782024-03-07 21:42:4937 days 3 hrs ago0xb97331e86ea4ce364491650e127e096c720dc422OUT 0xdf3d96299275e2fb40124b8ad9d270acfdcc61480 ETH0.00025227 0.1
0x005fbceacf82e5d65bd9d0afc9b3d88613b740bc736e99edd19ee8406536741fApprove1881255692024-03-07 21:41:5337 days 3 hrs ago0xb97331e86ea4ce364491650e127e096c720dc422OUT 0xfd4d76952e32e08e341fe7647ea159808ee1c42c0 ETH0.00018215 0.1
0xefa911fe0c3d168433d79ef6cacfe7559bde7dce9e53cdb4e41595219e3c2b5bMulticall1854432492024-02-28 20:01:5945 days 5 hrs ago0xb97331e86ea4ce364491650e127e096c720dc422OUT 0xe4ba6740af4c666325d49b3112e4758371386adc0 ETH0.00031077 0.1
0x9da9af7c3bb30a88d6892f9d8f2b1041be7c02a98594a6f8d11002ae54f8e1e7Approve1854432092024-02-28 20:01:4945 days 5 hrs ago0xb97331e86ea4ce364491650e127e096c720dc422OUT Arbitrum Foundation: ARB Token0 ETH0.00012484 0.1
0x794100605cd65ce9e61f0ca129f36916574796fc5697cf7bd836b8c30f7198dfWithdraw1854379312024-02-28 19:38:5545 days 5 hrs ago0xb97331e86ea4ce364491650e127e096c720dc422OUT 0x05e7aced3b7727f9129e6d302b488cd8a1e0c8170 ETH0.00021756 0.1
0x837591777c51efc7152f27899bddc866798f273fa8f57cadfcc51e73adf55305Claim1854378342024-02-28 19:38:2945 days 5 hrs ago0xb97331e86ea4ce364491650e127e096c720dc422OUT 0x9d5fa385cd988d3f148f53a9a5c87b7c8540b62d0 ETH0.00026326 0.1
0xec55523e8858523f87a546d85c289262eb3cf8b6c3fb0a3952ddc8f71e374981Withdraw1854372382024-02-28 19:35:4645 days 5 hrs ago0xb97331e86ea4ce364491650e127e096c720dc422OUT 0xdf3d96299275e2fb40124b8ad9d270acfdcc61480 ETH0.00021537 0.1
0xc1673800cbb42b389854f01afd52a6efd5c4a58b8fa279de4ee30bb332cf69c0Claim1854372002024-02-28 19:35:3545 days 5 hrs ago0xb97331e86ea4ce364491650e127e096c720dc422OUT 0x9d5fa385cd988d3f148f53a9a5c87b7c8540b62d0 ETH0.00026261 0.1
0x919a32a307615297e6ffbe988a00176ad28bc947d2d82cc83b70afc04da2883bStake1748371492024-01-27 21:59:3477 days 3 hrs ago0xb97331e86ea4ce364491650e127e096c720dc422OUT 0x9d5fa385cd988d3f148f53a9a5c87b7c8540b62d0 ETH0.00005302 0.1
[ Download CSV Export 
Latest 5 internal transactions
Parent Txn Hash Block From To Value
0x60dc55c323f5fd405091d021c6dbe7b44c740f6d05bd01307b409a2f63a497bb1887755842024-03-09 21:45:2035 days 3 hrs ago Uniswap: Universal Router 40xb97331e86ea4ce364491650e127e096c720dc4220.55508834210014615 ETH
0x90991897b9bee8d64b11fe953857f97c06dab6289e8a8d9c0624519077ded12c1884097422024-03-08 18:18:1936 days 6 hrs ago Uniswap: Universal Router 40xb97331e86ea4ce364491650e127e096c720dc4220.006966470273527086 ETH
0x7168ea618fdce934f733bf36d7ec86a946faf98e212a06b2732dedb4f18ac471589876192023-02-08 4:02:44430 days 21 hrs ago Uniswap: Universal Router0xb97331e86ea4ce364491650e127e096c720dc4220.002973135398159298 ETH
0x96454a1edf58e1988b13ee1eaef9992fc50b0863404a5ba876fd3f6e42bb088f479516662022-12-22 5:10:59478 days 19 hrs ago Arbitrum One: Bridge Executor 20xb97331e86ea4ce364491650e127e096c720dc4220.000055 ETH
0x96454a1edf58e1988b13ee1eaef9992fc50b0863404a5ba876fd3f6e42bb088f479516662022-12-22 5:10:59478 days 19 hrs ago Arbitrum One: Bridge Executor 20xb97331e86ea4ce364491650e127e096c720dc4220.000115159778041792 ETH
[ Download CSV Export 
Loading

Contract Name:
0 ETH

Compiler Version
0

Optimization Enabled:
0 ETH

Other Settings:
-NA-
Block Transaction Gas Used Reward
Age Block Fee Address BC Fee Address Voting Power Jailed Incoming
Block Uncle Number Difficulty Gas Used Reward
Loading
Make sure to use the "Vote Down" button for any spammy posts, and the "Vote Up" for interesting conversations.